Location: Asheville, NC
(35.6000°N, 82.5500°W)
Time: 15:56:04
(UTC-04:00)

ISS - Pass Details

Date: 07 May 2026
Orbit: 414 x 424 km, 51.6° (Epoch: 15 May)

Event Time Altitude Azimuth Distance (km) Brightness Sun altitude
Rises 21:48:01 0° 224° (SW) 2,330 0.1 -16.2°
Reaches altitude 10° 21:50:06 10° 223° (SW) 1,472 -0.9 -16.5°
Maximum altitude 21:53:23 79° 138° (SE) 422 -4.0 -17.1°
Enters shadow 21:56:31 11° 51° (NE) 1,400 -1.2 -17.6°
